COSMOS 1651 (GLONASS)

Satellite information

Favourite Embed

Satellite Type and Status

PAYLOADIN ORBIT

Key statistics

Satellite COSMOS 1651 (GLONASS) at a glance.

Uptime

14772

Days in orbit

Revolutions

≈ 2.1

Per day

Orbit

MEO

Medium Earth Orbit

Inclination

64.6

Latest

Satellite identification and parameters

Extended collection of information and parameters for COSMOS 1651 (GLONASS).

Object identification

Identified? True

Debris? False

Object name: COSMOS 1651 (GLONASS)

International designator: 1985-037B

Object number (NORAD): 15698

Object ID (CCSDS): 15698

Country: COMMONWEALTH OF INDEPENDENT STATES (CIS)

Current information (Y/N): Y

RCS size: LARGE

Orbital parameters

Period: 675.664 minutes

Inclination: 64.6101 deg

SMA: 25506.306 km

Apoapsis: 19161.927 km

Periapsis: 19094.414 km

RAAN: 81.0181 deg

Eccentricy: 0.00132347

Argument of periapsis: 351.891 deg

Mean anomaly: 6.9333 deg

Mean motion: 2.13123541 rev/day

Mean motion (dot): 0.0 rev/day2

B* drag term: 0.0 1/REarth

Two-line elements (TLE)

Creation date: Oct. 23, 2025, 2:46 a.m.

Reference frame: TEME

Reference center: EARTH

Epoch: Oct. 21, 2025, 10:52 p.m. UTC

TLE line 0: 0 COSMOS 1651 (GLONASS)

TLE line 1: 1 15698U 85037B 25294.95322358 .00000000 00000-0 00000-0 0 9991

TLE line 2: 2 15698 64.6101 81.0181 0013235 351.8910 6.9333 2.13123541314700

Live tracking on map

Real-time ground track for satellite COSMOS 1651 (GLONASS).

In-orbit conjunctions

There are no conjunctions computed for COSMOS 1651 (GLONASS), at the moment. Check back to stay up to date, as we update our databases every day.

Go to all conjunctions

Associated space launch

GLONASS navigation satellites

COSMOS 1651 (GLONASS) was lifted into orbit during the mission ‘Proton | Uragan 10 & 11’, on board a Proton space rocket.

The launch took place on May 17, 1985, 10:28 p.m. from 200/39 (200L).

For more information about the launch, click the button.

Launch to space Proton | Uragan 10 & 11
Proton | Uragan 10 & 11

Agency: N/A

Status: Launch Successful

Launch date: May 17, 1985, 10:28 p.m. UTC

Rocket: Proton

Launch pad: 200/39 (200L)

Location: Baikonur Cosmodrome, Republic of Kazakhstan

...

Latest news about this satellite

There are no fresh news available about this satellite. Check back as we update our databases every day.


Newsletter sign-up

Weekly statistics, charts and insights to help you stay on top of the space industry.